Regional Weather Roundup
Issued by NWS Sterling, VA

Home | Current Version | Previous Version | Graphics & Text | Print | Product List | Glossary On
Versions: 1 2 3 4 5 6 7 8 9 10 11 12 13 14 15 16 17 18 19 20 21 22 23 24 25 26 27 28 29 30 31 32 33 34 35 36 37 38 39 40 41 42 43 44 45 46 47 48 49 50
000
ASUS41 KLWX 270310
RWRLWX

REGIONAL WEATHER ROUNDUP
NATIONAL WEATHER SERVICE BALTIMORE MD/WASHINGTON DC
1100 PM EDT THU MAR 26 2015

Note: "FAIR" indicates few or no clouds below 12,000 feet
with no significant weather and/or obstructions to visibility.
 TC=TEMPERATURE CELSIUS

 * =Non NWS site. Station does not report precipitation (e.g. rain,
    snow, etc.), thunder, or fog.

DCZ001-MDZ009-015-VAZ040>042-051-053>054-270400-
WASHINGTON METRO

CITY           SKY/WX    TMP DP  RH WIND       PRES   REMARKS
WASHINGTON NAT LGT RAIN  56  48  74 N14       29.73R
DULLES         CLOUDY    51  44  77 NW15      29.75R
ANDREWS AFB    RAIN      54  52  92 NW10      29.71R
FT BELVOIR     CLOUDY    55  50  82 N8        29.73R
QUANTICO       LGT RAIN  56  51  84 N9G25     29.74R
COLLEGE PARK*  CLOUDY    54  52  94 N7        29.72S
LEESBURG*      CLOUDY    50  45  81 N14G22    29.77R
MANASSAS*      CLOUDY    54  46  76 N17G23    29.74R
GAITHERSBURG*  CLOUDY    50  43  76 N6        29.77R

$$

MDZ006>007-011-014-270400-
BALTIMORE METRO

CITY           SKY/WX    TMP DP  RH WIND       PRES   REMARKS
BWI AIRPORT    RAIN      53  49  86 NW8       29.72R
MD SCIENCE CTR   N/A     53  48  83 MISG      29.72R
MARTIN STATE   RAIN      52  50  93 NW14      29.73R
ANNAPOLIS      LGT RAIN  54  50  86 NW7       29.71R FOG

$$

MDZ012-015-019>023-270400-
MARYLAND EASTERN SHORE

CITY           SKY/WX    TMP DP  RH WIND       PRES   REMARKS
OCEAN CITY     CLOUDY    54  53  97 SW12G20   29.67F
SALISBURY      CLOUDY    63  60  90 SW13      29.66S
BAY BRIDGE AP* RAIN      52  52 100 N8        29.72R
CAMBRIDGE*     CLOUDY    61  55  82 N7        29.68R
EASTON*        CLOUDY    60  60 100 N6        29.73R

$$

MDZ017>025-270400-
SOUTHERN MARYLAND

CITY           SKY/WX    TMP DP  RH WIND       PRES   REMARKS
PATUXENT RIVER CLOUDY    63  58  83 S5        29.66R
ST INIGOES     CLOUDY    61  55  81 S5        29.65S
LEONARDTOWN*   CLOUDY    63  55  77 NW6       29.70R

$$

MDZ003>005-270400-
NORTH CENTRAL MARYLAND

CITY           SKY/WX    TMP DP  RH WIND       PRES   REMARKS
FREDERICK*     CLOUDY    52  39  62 N13       29.79R
HAGERSTOWN APT CLOUDY    47  40  76 N7        29.77R
WESTMINSTER*   CLOUDY    46  43  87 N9G17     29.75R

$$

MDZ501>502-270400-
WESTERN MARYLAND

CITY           SKY/WX    TMP DP  RH WIND       PRES   REMARKS
OAKLAND*       CLOUDY    34 N/A N/A W7        29.79R HAZE
CUMBERLAND*    CLOUDY    46  36  66 NW6       29.86R

$$

VAZ025>031-270400-
SHENANDOAH VALLEY

CITY           SKY/WX    TMP DP  RH WIND       PRES   REMARKS
WINCHESTER*    CLOUDY    50  36  57 NW12G23   29.79R
FRONT ROYAL*   CLOUDY    48  41  76 NW13G18   29.78R
LURAY*         DRIZZLE   55  46  71 N7        29.76R
NEW MARKET*    CLOUDY    51  45  80 N10       29.75R
STAUNTON*      RAIN      59  50  71 N9        29.73S
WAYNESBORO*    CLOUDY    55  53  94 SW6       29.72R

$$

WVZ021-048>050-054>055-270400-
EASTERN WEST VIRGINIA PANHANDLE

CITY           SKY/WX    TMP DP  RH WIND       PRES   REMARKS
MARTINSBURG    CLOUDY    50  38  63 N9G18     29.79R
PETERSBURG*    CLOUDY    49  36  59 N6        29.83R

$$

VAZ036>039-050-270400-
CENTRAL FOOTHILLS

CITY           SKY/WX    TMP DP  RH WIND       PRES   REMARKS
CHARLOTTESVILL CLOUDY    60  56  86 W3        29.69R
CULPEPER*      CLOUDY    55  52  88 N15       29.73R
ORANGE*        CLOUDY    61  55  82 N13       29.71R
GORDONSVILLE*  CLOUDY    60  55  84 S5        29.67S
WARRENTON*     MOCLDY    56  52  86 N20G25    29.73R

$$

VAZ055>057-270400-
NORTH AND CENTRAL PIEDMONT

CITY           SKY/WX    TMP DP  RH WIND       PRES   REMARKS
FREDERICKSBRG* HVY RAIN  58  58  98 N8        29.70R
STAFFORD*      RAIN      56  32  39 N9G16     29.75R

$$

NCZ024-NYZ072-PAZ021-071-VAZ022-071-270400-
OTHER REGIONAL OBSERVATIONS

CITY           SKY/WX    TMP DP  RH WIND       PRES   REMARKS
NEW YORK CITY  RAIN      46  43  89 N10       29.68R FOG
PHILADELPHIA   LGT RAIN  54  52  93 N5        29.67S
PITTSBURGH     CLOUDY    38  35  89 NW10      29.87R
ROANOKE        LGT RAIN  56  53  90 CALM      29.75R
RICHMOND       CLOUDY    67  54  63 S10       29.67F
RALEIGH        CLOUDY    68  56  65 SW10      29.72S

$$

ANZ530>537-270400-
MARINE OBSERVATIONS

STATION/POSITION TIME  TEMP    WIND        PRES
                       AIR SEA DIR/SP/G
                 (UTC) (F)     (DEG/KT/KT) (MB)
THOMAS PT LIGHT  0300                        N/A
BALT KEY BRIDGE  0200   58     320/  8/  9 1004.8R
COVE POINT       0200   64     220/ 14/ 16 1003.8R
LEWISETTA        0200   64 49              1004.0R
SOLOMONS ISLAND  0200      43                N/A
PINEY POINT      0200          170/  2/  3   N/A

$$



USA.gov is the U.S. government's official web portal to all federal, state and local government web resources and services.